Hourly Data Report for October 12, 2014

All times are specified in Local Standard Time (LST). Add 1 hour to adjust for Daylight Saving Time where and when it is observed.

HALL BEACH A
NUNAVUT

68°46'33.000" N
81°14'33.000" W
9.10 m
2402354
71293
YUX

Download Data

Hourly Data (October 2014)
Hourly Data Report for October 12, 2014
Temp Definition
°C
Dew Point Temp Definition
°C
Rel Hum Definition
%
Wind Dir Definition
10's deg

Wind Spd Definition
km/h
Visibility Definition
km
Stn Press Definition
kPa
Hmdx Definition


Wind Chill Definition


Weather Definition


TIME
00:00 Legend Double Dagger -1.2 -1.2 100 6 18 1.6 99.91   -6 Freezing Rain,Fog
01:00 Legend Double Dagger -1.2 -1.2 100 6 18 16.1 99.92   -6 LegendNANA
02:00 Legend Double Dagger -2.1 -2.1 100 4 15 16.1 99.91   -7 LegendNANA
03:00 Legend Double Dagger -1.4 -1.4 100 2 11 16.1 99.93   -5 LegendNANA
04:00 Legend Double Dagger -1.8 -1.8 100 2 13 1.2 99.96   -6 Fog
05:00 Legend Double Dagger -1.5 -1.5 100 1 17 4.0 99.96   -7 Fog
06:00 Legend Double Dagger -1.6 -1.6 100 2 18 16.1 99.95   -7 Snow
07:00 Legend Double Dagger -1.8 -1.8 100 1 22 1.6 99.94   -8 Fog
08:00 Legend Double Dagger -1.5 -1.5 100 36 21 0.4 99.90   -7 Heavy Snow
09:00 Legend Double Dagger -1.9 -1.9 100 36 22 0.4 99.86   -8 Heavy Snow
10:00 Legend Double Dagger -1.7 -1.8 99 35 26 0.4 99.80   -8 Heavy Snow
11:00 Legend Double Dagger -1.9 -2.0 99 34 28 2.0 99.74   -9 Fog
12:00 Legend Double Dagger -1.9 -2.0 99 33 28 16.1 99.68   -9 Snow
13:00 Legend Double Dagger -1.1 -1.2 99 33 32 9.7 99.64   -8 Snow
14:00 Legend Double Dagger -1.2 -1.3 99 33 28 4.8 99.60   -8 Snow
15:00 Legend Double Dagger -1.4 -1.5 99 33 28 2.4 99.56   -8 Snow
16:00 Legend Double Dagger -1.5 -1.6 99 33 24 6.4 99.54   -8 Snow
17:00 Legend Double Dagger -1.5 -1.6 99 32 22 4.0 99.54   -7 Snow
18:00 Legend Double Dagger -1.6 -1.7 99 30 15 3.6 99.59   -6 Snow
19:00 Legend Double Dagger -1.6 -1.7 99 25 9 3.6 99.63   -5 Snow
20:00 Legend Double Dagger -1.7 -1.8 99 20 15 11.3 99.69   -7 Snow
21:00 Legend Double Dagger -1.7 -1.8 99 17 13 16.1 99.76   -6 Snow
22:00 Legend Double Dagger -1.4 -1.5 99 15 15 9.7 99.83   -6 Snow
23:00 Legend Double Dagger -1.2 -1.3 99 15 21 11.3 99.88   -7 Snow

Notes on Data Quality.

Legend

  • E = Estimated
  • M = Missing
  • NA = Not Available
  • ‡ = Partner data that is not subject to review by the National Climate Archives
Date modified: